GW2042 Weather Reports


Display with metric or nautical units.
time (UTC)temp
F
wind
direction
speed
MPH
gust
MPH
rain 1hr
in
rain 24hr
in
rain mn
in
humidity
%
barometer
mb
20260901173524 97 117 2.0 10.0 0.00 0.00 0.00 38 1018.1
20260901173042 98 92 4.0 10.0 0.00 0.00 0.00 39 1018.3
20260901172520 97 127 2.0 10.0 0.00 0.00 0.00 39 1018.2
20260901172020 98 191 4.0 10.0 0.00 0.00 0.00 39 1018.3
20260901171543 97 144 2.0 7.0 0.00 0.00 0.00 40 1018.4
20260901171020 97 100 3.0 7.0 0.00 0.00 0.00 39 1018.3
20260901170520 95 157 1.0 7.0 0.00 0.00 0.00 42 1018.4
20260901170043 94 217 2.0 7.0 0.00 0.00 0.00 43 1018.4
20260901165519 95 182 3.0 7.0 0.00 0.00 0.00 41 1018.5
20260901165023 94 168 3.0 9.0 0.00 0.00 0.00 44 1018.5
20260901164545 94 219 4.0 9.0 0.00 0.00 0.00 43 1018.6
20260901164023 93 217 3.0 7.0 0.00 0.00 0.00 45 1018.7
20260901163523 94 193 2.0 7.0 0.00 0.00 0.00 43 1018.7
20260901163043 94 158 3.0 7.0 0.00 0.00 0.00 43 1018.7
20260901162519 92 160 2.0 9.0 0.00 0.00 0.00 46 1018.7
20260901162022 93 251 3.0 9.0 0.00 0.00 0.00 44 1018.7
20260901161541 94 150 4.0 9.0 0.00 0.00 0.00 44 1018.7
20260901161019 93 171 3.0 9.0 0.00 0.00 0.00 45 1018.7
20260901160521 93 115 3.0 8.0 0.00 0.00 0.00 44 1018.7
20260901160040 93 160 3.0 8.0 0.00 0.00 0.00 45 1018.7
20260901155518 92 142 2.0 7.0 0.00 0.00 0.00 45 1018.6
20260901155018 92 117 1.0 7.0 0.00 0.00 0.00 45 1018.6
20260901154540 92 134 2.0 8.0 0.00 0.00 0.00 46 1018.7
20260901154018 91 144 3.0 8.0 0.00 0.00 0.00 47 1018.7
20260901153520 91 148 1.0 6.0 0.00 0.00 0.00 47 1018.7
20260901153043 91 190 2.0 6.0 0.00 0.00 0.00 48 1018.7
20260901152517 91 193 2.0 8.0 0.00 0.00 0.00 48 1018.7
20260901152017 90 0 2.0 8.0 0.00 0.00 0.00 49 1018.7
20260901151542 90 259 2.0 7.0 0.00 0.00 0.00 49 1018.7
20260901151025 90 209 2.0 7.0 0.00 0.00 0.00 49 1018.6
20260901150519 89 150 1.0 8.0 0.00 0.00 0.00 51 1018.6
20260901150040 88 195 2.0 8.0 0.00 0.00 0.00 51 1018.6
20260901145519 88 193 3.0 8.0 0.00 0.00 0.00 52 1018.7
20260901145020 87 215 3.0 8.0 0.00 0.00 0.00 52 1018.7
20260901144537 87 225 3.0 9.0 0.00 0.00 0.00 53 1018.6
20260901144022 86 225 3.0 9.0 0.00 0.00 0.00 54 1018.6
20260901143522 86 198 4.0 8.0 0.00 0.00 0.00 53 1018.6
20260901143038 86 173 3.0 7.0 0.00 0.00 0.00 54 1018.7
20260901142519 85 192 2.0 7.0 0.00 0.00 0.00 55 1018.6
20260901142017 84 157 3.0 7.0 0.00 0.00 0.00 57 1018.7
20260901141536 84 119 1.0 7.0 0.00 0.00 0.00 58 1018.7
20260901141026 84 174 1.0 8.0 0.00 0.00 0.00 59 1018.6
20260901140516 83 215 2.0 8.0 0.00 0.00 0.00 60 1018.7
20260901140035 82 205 3.0 8.0 0.00 0.00 0.00 62 1018.7
20260901135516 81 222 2.0 6.0 0.00 0.00 0.00 63 1018.7
20260901135022 80 181 2.0 4.0 0.00 0.00 0.00 66 1018.6
20260901134539 79 0 1.0 4.0 0.00 0.00 0.00 67 1018.7
20260901134024 78 221 1.0 4.0 0.00 0.00 0.00 69 1018.7
20260901133521 77 150 1.0 3.0 0.00 0.00 0.00 70 1018.7
20260901133043 76 150 0.0 2.0 0.00 0.00 0.00 72 1018.6
20260901132520 75 0 0.0 2.0 0.00 0.00 0.00 72 1018.6
20260901132020 75 150 0.0 3.0 0.00 0.00 0.00 72 1018.5
20260901131535 74 0 0.0 3.0 0.00 0.00 0.00 72 1018.6
20260901131017 74 150 0.0 2.0 0.00 0.00 0.00 74 1018.5
20260901130520 73 0 0.0 0.0 0.00 0.00 0.00 76 1018.5
20260901130038 72 0 0.0 0.0 0.00 0.00 0.00 77 1018.3
20260901125520 72 0 0.0 0.0 0.00 0.00 0.00 78 1018.3
20260901125023 71 0 0.0 0.0 0.00 0.00 0.00 77 1018.4
20260901124538 70 0 0.0 0.0 0.00 0.00 0.00 76 1018.3
20260901124018 70 0 0.0 0.0 0.00 0.00 0.00 77 1018.2
20260901123520 70 0 0.0 0.0 0.00 0.00 0.00 77 1018.3
20260901123035 70 0 0.0 0.0 0.00 0.00 0.00 77 1018.1
20260901122523 69 0 0.0 0.0 0.00 0.00 0.00 78 1018.1
20260901122017 69 0 0.0 0.0 0.00 0.00 0.00 78 1018.1
20260901121538 69 0 0.0 0.0 0.00 0.00 0.00 78 1018.0
20260901121018 69 0 0.0 0.0 0.00 0.00 0.00 77 1018.0
20260901120517 69 0 0.0 0.0 0.00 0.00 0.00 77 1018.0
20260901120047 69 0 0.0 0.0 0.00 0.00 0.00 78 1017.9
20260901115517 69 0 0.0 0.0 0.00 0.00 0.00 76 1017.9
20260901115017 69 0 0.0 0.0 0.00 0.00 0.00 76 1017.9
20260901114537 69 0 0.0 0.0 0.00 0.00 0.00 75 1018.0
20260901114018 69 0 0.0 0.0 0.00 0.00 0.00 76 1018.0
20260901113518 69 0 0.0 0.0 0.00 0.00 0.00 76 1018.0
20260901113051 69 0 0.0 0.0 0.00 0.00 0.00 75 1018.1
20260901112519 70 0 0.0 0.0 0.00 0.00 0.00 75 1018.1
20260901112017 70 0 0.0 0.0 0.00 0.00 0.00 74 1018.1
20260901111539 70 0 0.0 0.0 0.00 0.00 0.00 74 1018.0
20260901111017 71 0 0.0 0.0 0.00 0.00 0.00 73 1018.0
20260901110516 71 0 0.0 0.0 0.00 0.00 0.00 73 1018.0
20260901110039 71 0 0.0 0.0 0.00 0.00 0.00 73 1018.0
20260901105516 71 0 0.0 0.0 0.00 0.00 0.00 72 1017.9
20260901105021 71 0 0.0 1.0 0.00 0.00 0.00 72 1018.0
20260901104544 72 0 0.0 1.0 0.00 0.00 0.00 70 1017.9
20260901104021 72 0 0.0 1.0 0.00 0.00 0.00 70 1017.9
20260901103519 72 0 0.0 1.0 0.00 0.00 0.00 70 1017.9
20260901103039 72 0 0.0 1.0 0.00 0.00 0.00 70 1017.9
20260901102518 73 0 0.0 2.0 0.00 0.00 0.00 69 1017.8
20260901102017 73 0 0.0 2.0 0.00 0.00 0.00 69 1017.8
20260901101548 73 0 0.0 2.0 0.00 0.00 0.00 68 1017.8
20260901101019 73 150 0.0 2.0 0.00 0.00 0.00 69 1017.7
20260901100520 73 150 0.0 2.0 0.00 0.00 0.00 69 1017.7
20260901100038 72 150 0.0 2.0 0.00 0.00 0.00 69 1017.6
20260901095519 72 0 0.0 2.0 0.00 0.00 0.00 70 1017.7
20260901095018 72 150 0.0 2.0 0.00 0.00 0.00 70 1017.7
20260901094540 72 0 0.0 2.0 0.00 0.00 0.00 71 1017.6
20260901094020 72 0 0.0 2.0 0.00 0.00 0.00 71 1017.7
20260901093518 72 150 0.0 2.0 0.00 0.00 0.00 71 1017.7
20260901093048 72 0 0.0 2.0 0.00 0.00 0.00 71 1017.7
20260901092519 72 150 0.0 1.0 0.00 0.00 0.00 70 1017.7
20260901092022 73 0 0.0 2.0 0.00 0.00 0.00 69 1017.7
20260901091543 73 0 0.0 2.0 0.00 0.00 0.00 69 1017.7
20260901091023 72 0 0.0 2.0 0.00 0.00 0.00 70 1017.7
20260901090519 72 150 0.0 1.0 0.00 0.00 0.00 68 1017.7
20260901090040 72 0 0.0 1.0 0.00 0.00 0.00 68 1017.6
20260901085519 72 0 0.0 1.0 0.00 0.00 0.00 68 1017.7
20260901085019 72 0 0.0 0.0 0.00 0.00 0.00 68 1017.7
20260901084542 72 0 0.0 0.0 0.00 0.00 0.00 67 1017.6
20260901084018 72 0 0.0 0.0 0.00 0.00 0.00 67 1017.6
20260901083523 72 0 0.0 0.0 0.00 0.00 0.00 66 1017.6
20260901083042 72 0 0.0 0.0 0.00 0.00 0.00 66 1017.6
20260901082519 72 0 0.0 0.0 0.00 0.00 0.00 66 1017.6
20260901082018 72 0 0.0 0.0 0.00 0.00 0.00 65 1017.6
20260901081537 73 0 0.0 0.0 0.00 0.00 0.00 64 1017.6
20260901081018 72 0 0.0 1.0 0.00 0.00 0.00 64 1017.5
20260901080519 72 0 0.0 1.0 0.00 0.00 0.00 64 1017.5
20260901080041 73 0 0.0 1.0 0.00 0.00 0.00 64 1017.5
20260901075522 73 0 0.0 2.0 0.00 0.00 0.00 63 1017.6
20260901075021 73 0 0.0 2.0 0.00 0.00 0.00 64 1017.5
20260901074547 72 0 0.0 2.0 0.00 0.00 0.00 64 1017.6
20260901074023 72 150 0.0 1.0 0.00 0.00 0.00 64 1017.6
20260901073519 73 0 0.0 1.0 0.00 0.00 0.00 64 1017.6
20260901073039 73 0 0.0 4.0 0.00 0.00 0.00 65 1017.5
20260901072520 71 0 0.0 4.0 0.00 0.00 0.00 67 1017.4
20260901072020 70 142 0.0 1.0 0.00 0.00 0.00 68 1017.6
20260901071542 71 0 0.0 0.0 0.00 0.00 0.00 69 1017.5
20260901071021 71 0 0.0 0.0 0.00 0.00 0.00 68 1017.4
20260901070521 71 0 0.0 0.0 0.00 0.00 0.00 68 1017.4
20260901070043 71 0 0.0 0.0 0.00 0.00 0.00 67 1017.3
20260901065519 71 0 0.0 0.0 0.00 0.00 0.00 66 1017.2
20260901065018 72 0 0.0 0.0 0.00 0.00 0.00 65 1017.2
20260901064540 72 0 0.0 0.0 0.00 0.00 0.00 64 1017.2
20260901064020 72 0 0.0 0.0 0.00 0.00 0.00 64 1017.2
20260901063518 72 0 0.0 0.0 0.00 0.00 0.00 65 1017.1
20260901063037 72 0 0.0 0.0 0.00 0.00 0.00 65 1017.2
20260901062518 72 0 0.0 0.0 0.00 0.00 0.00 65 1017.1
20260901062020 71 0 0.0 0.0 0.00 0.00 0.00 65 1017.0
20260901061541 71 0 0.0 0.0 0.00 0.00 0.00 65 1017.0
20260901061019 72 0 0.0 0.0 0.00 0.00 0.00 65 1017.0
20260901060518 72 0 0.0 0.0 0.00 0.00 0.00 65 1017.0
20260901060040 72 0 0.0 0.0 0.00 0.00 0.00 64 1017.0
20260901055523 73 0 0.0 0.0 0.00 0.00 0.00 63 1016.9
20260901055026 73 0 0.0 0.0 0.00 0.00 0.00 63 1016.9
20260901054538 73 0 0.0 0.0 0.00 0.00 0.00 62 1016.8
20260901054019 74 0 0.0 0.0 0.00 0.00 0.00 61 1016.8
20260901053519 74 0 0.0 0.0 0.00 0.00 0.00 60 1016.8
20260901053042 75 0 0.0 0.0 0.00 0.00 0.00 59 1016.8
20260901052517 75 0 0.0 0.0 0.00 0.00 0.00 58 1016.7
20260901052023 76 0 0.0 0.0 0.00 0.00 0.00 58 1016.6
20260901051542 76 0 0.0 0.0 0.00 0.00 0.00 57 1016.6
20260901051017 76 0 0.0 0.0 0.00 0.00 0.00 57 1016.5
20260901050519 76 0 0.0 0.0 0.00 0.00 0.00 56 1016.5
20260901050038 76 0 0.0 0.0 0.00 0.00 0.00 56 1016.6
20260901045516 77 0 0.0 0.0 0.00 0.00 0.00 56 1016.5
20260901045025 77 0 0.0 0.0 0.00 0.00 0.00 55 1016.5
20260901044540 78 0 0.0 0.0 0.00 0.00 0.00 54 1016.5
20260901044021 78 0 0.0 0.0 0.00 0.00 0.00 54 1016.5
20260901043524 79 0 0.0 1.0 0.00 0.00 0.00 53 1016.6
20260901043048 79 0 0.0 1.0 0.00 0.00 0.00 52 1016.5
20260901042520 79 0 0.0 2.0 0.00 0.00 0.00 51 1016.6
20260901042019 79 0 0.0 2.0 0.00 0.00 0.00 51 1016.6
20260901041537 79 142 0.0 2.0 0.00 0.00 0.00 52 1016.6
20260901041020 79 142 0.0 2.0 0.00 0.00 0.00 51 1016.6
20260901040520 79 0 0.0 2.0 0.00 0.00 0.00 52 1016.5
20260901040045 79 0 0.0 2.0 0.00 0.00 0.00 51 1016.4
20260901035519 80 148 0.0 3.0 0.00 0.00 0.00 51 1016.5
20260901035019 80 130 1.0 3.0 0.00 0.00 0.00 51 1016.4
20260901034546 80 126 0.0 3.0 0.00 0.00 0.00 51 1016.5
20260901034020 80 0 0.0 2.0 0.00 0.00 0.00 50 1016.3
20260901033523 80 128 0.0 3.0 0.00 0.00 0.00 50 1016.4
20260901033100 80 0 0.0 3.0 0.00 0.00 0.00 49 1016.4
20260901032520 80 0 0.0 3.0 0.00 0.00 0.00 49 1016.4
20260901032020 81 0 0.0 2.0 0.00 0.00 0.00 48 1016.4
20260901031602 81 0 0.0 2.0 0.00 0.00 0.00 48 1016.4
20260901031024 82 140 0.0 2.0 0.00 0.00 0.00 47 1016.4
20260901030519 81 0 0.0 2.0 0.00 0.00 0.00 48 1016.3
20260901030045 81 0 0.0 2.0 0.00 0.00 0.00 48 1016.2
20260901025522 81 0 0.0 2.0 0.00 0.00 0.00 48 1016.2
20260901025023 81 0 0.0 2.0 0.00 0.00 0.00 48 1016.1
20260901024542 81 0 0.0 2.0 0.00 0.00 0.00 48 1016.1
20260901024021 82 0 0.0 2.0 0.00 0.00 0.00 48 1016.0
20260901023519 82 0 0.0 2.0 0.00 0.00 0.00 47 1016.0
20260901023043 82 0 0.0 3.0 0.00 0.00 0.00 47 1016.0
20260901022520 83 0 0.0 3.0 0.00 0.00 0.00 46 1015.9
20260901022018 83 0 0.0 3.0 0.00 0.00 0.00 46 1015.8
20260901021540 83 0 0.0 2.0 0.00 0.00 0.00 46 1015.7
20260901021017 83 0 0.0 5.0 0.00 0.00 0.00 46 1015.7
20260901020520 83 138 0.0 5.0 0.00 0.00 0.00 46 1015.6
20260901020038 83 0 0.0 5.0 0.00 0.00 0.00 46 1015.7
20260901015519 83 0 0.0 1.0 0.00 0.00 0.00 45 1015.6
20260901015019 83 0 0.0 1.0 0.00 0.00 0.00 45 1015.5
20260901014548 84 0 0.0 1.0 0.00 0.00 0.00 45 1015.5
20260901014020 84 0 0.0 2.0 0.00 0.00 0.00 44 1015.4
20260901013520 85 0 0.0 2.0 0.00 0.00 0.00 43 1015.4
20260901013047 86 0 0.0 4.0 0.00 0.00 0.00 43 1015.4
20260901012518 87 0 0.0 4.0 0.00 0.00 0.00 42 1015.3
20260901012020 88 0 1.0 4.0 0.00 0.00 0.00 40 1015.3
20260901011541 88 138 1.0 6.0 0.00 0.00 0.00 39 1015.2
20260901011020 89 135 1.0 6.0 0.00 0.00 0.00 39 1015.2
20260901010519 90 147 2.0 7.0 0.00 0.00 0.00 38 1015.3
20260901010040 90 136 2.0 8.0 0.00 0.00 0.00 38 1015.2
20260901005518 90 140 2.0 10.0 0.00 0.00 0.00 37 1015.3
20260901005017 91 113 2.0 10.0 0.00 0.00 0.00 37 1015.2
20260901004542 91 123 3.0 10.0 0.00 0.00 0.00 36 1015.1
20260901004018 92 128 4.0 10.0 0.00 0.00 0.00 35 1015.0
20260901003519 92 114 4.0 10.0 0.00 0.00 0.00 35 1015.0
20260901003041 92 140 4.0 10.0 0.00 0.00 0.00 35 1014.9
20260901002519 93 123 3.0 12.0 0.00 0.00 0.00 34 1015.0
20260901002028 93 134 3.0 12.0 0.00 0.00 0.00 34 1015.1
20260901001553 93 162 3.0 11.0 0.00 0.00 0.00 34 1015.0
20260901001019 94 148 4.0 9.0 0.00 0.00 0.00 34 1015.1
20260901000520 94 131 4.0 13.0 0.00 0.00 0.00 34 1015.0
20260901000039 95 128 5.0 13.0 0.00 0.00 0.00 34 1015.0
20260831235523 95 136 7.0 13.0 0.00 0.00 0.00 33 1014.9
20260831235019 96 126 4.0 9.0 0.00 0.00 0.00 32 1014.7
20260831234540 96 150 3.0 8.0 0.00 0.00 0.00 31 1014.8
20260831234017 97 144 4.0 9.0 0.00 0.00 0.00 31 1014.9
20260831233520 97 139 4.0 11.0 0.00 0.00 0.00 31 1014.8
20260831233040 97 154 4.0 11.0 0.00 0.00 0.00 30 1014.9
20260831232520 98 121 4.0 8.0 0.00 0.00 0.00 30 1015.0
20260831232020 98 158 3.0 8.0 0.00 0.00 0.00 30 1014.9
20260831231544 98 157 2.0 12.0 0.00 0.00 0.00 30 1014.9
20260831231023 98 154 3.0 12.0 0.00 0.00 0.00 30 1014.9
20260831230520 99 146 2.0 10.0 0.00 0.00 0.00 30 1014.9
20260831230037 99 134 4.0 10.0 0.00 0.00 0.00 30 1015.1
20260831225521 99 172 1.0 7.0 0.00 0.00 0.00 29 1015.0
20260831225022 100 155 2.0 9.0 0.00 0.00 0.00 29 1015.1
20260831224542 99 160 2.0 13.0 0.00 0.00 0.00 29 1015.0
20260831224021 99 147 5.0 13.0 0.00 0.00 0.00 29 1015.1
20260831223520 100 153 4.0 10.0 0.00 0.00 0.00 30 1015.1
20260831223040 100 136 3.0 10.0 0.00 0.00 0.00 29 1015.1
20260831222518 100 140 3.0 7.0 0.00 0.00 0.00 30 1015.1
20260831222023 100 140 2.0 9.0 0.00 0.00 0.00 29 1015.1
20260831221551 99 184 3.0 9.0 0.00 0.00 0.00 30 1015.1
20260831221021 97 158 3.0 8.0 0.00 0.00 0.00 31 1015.2
20260831220520 95 96 2.0 9.0 0.00 0.00 0.00 32 1015.2
20260831220037 95 146 4.0 9.0 0.00 0.00 0.00 32 1015.3
20260831215519 95 159 3.0 9.0 0.00 0.00 0.00 32 1015.3
20260831215020 96 140 2.0 7.0 0.00 0.00 0.00 31 1015.4
20260831214552 95 144 2.0 8.0 0.00 0.00 0.00 32 1015.4
20260831214019 96 0 3.0 8.0 0.00 0.00 0.00 31 1015.4
20260831213523 99 168 2.0 15.0 0.00 0.00 0.00 29 1015.6
20260831213050 100 153 3.0 15.0 0.00 0.00 0.00 28 1015.5
20260831212523 101 149 7.0 15.0 0.00 0.00 0.00 29 1015.6
20260831212017 102 140 4.0 11.0 0.00 0.00 0.00 28 1015.6
20260831211539 101 124 4.0 11.0 0.00 0.00 0.00 28 1015.7
20260831211021 99 168 4.0 12.0 0.00 0.00 0.00 28 1015.8
20260831210523 102 119 3.0 12.0 0.00 0.00 0.00 27 1015.7
20260831210041 102 132 3.0 13.0 0.00 0.00 0.00 28 1015.9
20260831205520 101 171 5.0 13.0 0.00 0.00 0.00 27 1016.0
20260831205020 102 182 5.0 12.0 0.00 0.00 0.00 27 1016.0
20260831204547 102 150 4.0 10.0 0.00 0.00 0.00 27 1016.0
20260831204020 100 201 3.0 10.0 0.00 0.00 0.00 27 1016.1
20260831203517 101 67 3.0 11.0 0.00 0.00 0.00 26 1016.2
20260831203050 100 192 3.0 14.0 0.00 0.00 0.00 26 1016.2
20260831202519 102 143 4.0 14.0 0.00 0.00 0.00 26 1016.4
20260831202018 102 145 2.0 9.0 0.00 0.00 0.00 26 1016.3
20260831201536 101 142 5.0 11.0 0.00 0.00 0.00 27 1016.4
20260831201021 100 106 3.0 12.0 0.00 0.00 0.00 27 1016.4
20260831200520 102 115 2.0 12.0 0.00 0.00 0.00 26 1016.4
20260831200042 102 114 3.0 10.0 0.00 0.00 0.00 27 1016.5
20260831195521 101 140 3.0 10.0 0.00 0.00 0.00 28 1016.6
20260831195018 98 130 4.0 10.0 0.00 0.00 0.00 30 1016.8
20260831194540 100 193 3.0 12.0 0.00 0.00 0.00 28 1016.7
20260831194024 101 131 6.0 12.0 0.00 0.00 0.00 28 1016.8
20260831193520 100 135 5.0 10.0 0.00 0.00 0.00 29 1016.8
20260831193035 100 165 3.0 10.0 0.00 0.00 0.00 29 1017.0
20260831192521 96 153 4.0 10.0 0.00 0.00 0.00 32 1017.1
20260831192018 97 178 2.0 14.0 0.00 0.00 0.00 31 1017.1
20260831191550 100 142 3.0 14.0 0.00 0.00 0.00 28 1017.1
20260831191020 99 123 4.0 10.0 0.00 0.00 0.00 29 1017.0
20260831190520 98 175 4.0 11.0 0.00 0.00 0.00 29 1017.0
20260831190042 100 161 3.0 11.0 0.00 0.00 0.00 28 1017.2
20260831185520 100 161 5.0 11.0 0.00 0.00 0.00 29 1017.2
20260831185016 99 148 2.0 10.0 0.00 0.00 0.00 29 1017.3
20260831184537 100 128 2.0 10.0 0.00 0.00 0.00 30 1017.3
20260831184023 99 163 4.0 9.0 0.00 0.00 0.00 31 1017.4
20260831183525 99 192 4.0 11.0 0.00 0.00 0.00 31 1017.6
20260831183041 98 0 3.0 11.0 0.00 0.00 0.00 31 1017.5
20260831182520 98 152 4.0 11.0 0.00 0.00 0.00 32 1017.7
20260831182018 100 177 3.0 9.0 0.00 0.00 0.00 31 1017.8
20260831181549 99 157 2.0 11.0 0.00 0.00 0.00 32 1017.7
20260831181017 99 160 4.0 11.0 0.00 0.00 0.00 32 1017.9
20260831180519 99 130 4.0 12.0 0.00 0.00 0.00 32 1017.9
20260831180042 99 136 5.0 12.0 0.00 0.00 0.00 32 1018.0
20260831175518 98 143 4.0 9.0 0.00 0.00 0.00 32 1018.0
20260831175024 98 157 2.0 15.0 0.00 0.00 0.00 33 1018.1
20260831174537 98 217 5.0 15.0 0.00 0.00 0.00 32 1018.2
20260831174023 97 194 3.0 10.0 0.00 0.00 0.00 32 1018.3